Year,Month,Day,Hour,Minute,Value (Times are PST for windgust in km/hr)
2013,12,24,00,00,8.10
2013,12,24,00,01,6.40
2013,12,24,00,02,4.80
2013,12,24,00,03,1.60
2013,12,24,00,04,1.60
2013,12,24,00,05,3.20
2013,12,24,00,06,3.20
2013,12,24,00,07,1.60
2013,12,24,00,08,1.60
2013,12,24,00,09,1.60
2013,12,24,00,10,1.60
2013,12,24,00,11,3.20
2013,12,24,00,12,4.80
2013,12,24,00,13,3.20
2013,12,24,00,14,1.60
2013,12,24,00,16,1.60
2013,12,24,00,17,1.60
2013,12,24,00,18,1.60
2013,12,24,00,19,4.80
2013,12,24,00,20,4.80
2013,12,24,00,21,3.20
2013,12,24,00,22,1.60
2013,12,24,00,26,6.40
2013,12,24,00,27,6.40
2013,12,24,00,28,3.20
2013,12,24,00,29,1.60
2013,12,24,00,30,1.60
2013,12,24,00,31,1.60
2013,12,24,00,32,3.20
2013,12,24,00,33,3.20
2013,12,24,00,34,6.40
2013,12,24,00,35,3.20
2013,12,24,00,36,3.20
2013,12,24,00,37,1.60
2013,12,24,00,38,1.60
2013,12,24,00,39,1.60
2013,12,24,00,42,3.20
2013,12,24,00,43,1.60
2013,12,24,00,48,3.20
2013,12,24,00,50,3.20
2013,12,24,00,51,1.60
2013,12,24,00,52,3.20
2013,12,24,00,53,1.60
2013,12,24,00,54,3.20
2013,12,24,00,55,4.80
2013,12,24,00,56,4.80
2013,12,24,00,57,3.20
2013,12,24,00,58,3.20
2013,12,24,00,59,4.80
2013,12,24,01,00,3.20
2013,12,24,01,01,1.60
2013,12,24,01,02,4.80
2013,12,24,01,03,4.80
2013,12,24,01,04,3.20
2013,12,24,01,05,6.40
2013,12,24,01,06,4.80
2013,12,24,01,07,4.80
2013,12,24,01,08,8.10
2013,12,24,01,09,8.10
2013,12,24,01,10,11.30
2013,12,24,01,11,8.10
2013,12,24,01,12,4.80
2013,12,24,01,13,4.80
2013,12,24,01,14,4.80
2013,12,24,01,15,3.20
2013,12,24,01,16,8.10
2013,12,24,01,17,8.10
2013,12,24,01,18,8.10
2013,12,24,01,19,4.80
2013,12,24,01,20,4.80
2013,12,24,01,21,6.40
2013,12,24,01,22,9.60
2013,12,24,01,23,11.30
2013,12,24,01,24,6.40
2013,12,24,01,25,6.40
2013,12,24,01,26,9.60
2013,12,24,01,27,6.40
2013,12,24,01,28,3.20
2013,12,24,01,29,3.20
2013,12,24,01,30,3.20
2013,12,24,01,31,6.40
2013,12,24,01,32,6.40
2013,12,24,01,33,3.20
2013,12,24,01,34,3.20
2013,12,24,01,35,4.80
2013,12,24,01,36,3.20
2013,12,24,01,37,1.60
2013,12,24,01,38,6.40
2013,12,24,01,39,4.80
2013,12,24,01,40,8.10
2013,12,24,01,41,8.10
2013,12,24,01,42,6.40
2013,12,24,01,43,11.30
2013,12,24,01,44,4.80
2013,12,24,01,45,6.40
2013,12,24,01,46,6.40
2013,12,24,01,47,4.80
2013,12,24,01,48,6.40
2013,12,24,01,49,6.40
2013,12,24,01,50,8.10
2013,12,24,01,51,6.40
2013,12,24,01,52,9.60
2013,12,24,01,53,6.40
2013,12,24,01,54,8.10
2013,12,24,01,55,4.80
2013,12,24,01,56,4.80
2013,12,24,01,57,1.60
2013,12,24,01,58,3.20
2013,12,24,01,59,3.20
2013,12,24,02,00,4.80
2013,12,24,02,01,3.20
2013,12,24,02,02,4.80
2013,12,24,02,03,4.80
2013,12,24,02,04,6.40
2013,12,24,02,05,6.40
2013,12,24,02,06,4.80
2013,12,24,02,07,4.80
2013,12,24,02,08,6.40
2013,12,24,02,09,11.30
2013,12,24,02,10,6.40
2013,12,24,02,11,1.60
2013,12,24,02,12,6.40
2013,12,24,02,13,9.60
2013,12,24,02,14,9.60
2013,12,24,02,15,6.40
2013,12,24,02,16,8.10
2013,12,24,02,17,4.80
2013,12,24,02,18,8.10
2013,12,24,02,19,8.10
2013,12,24,02,20,11.30
2013,12,24,02,21,11.30
2013,12,24,02,22,14.50
2013,12,24,02,23,6.40
2013,12,24,02,24,6.40
2013,12,24,02,25,8.10
2013,12,24,02,26,6.40
2013,12,24,02,27,4.80
2013,12,24,02,28,6.40
2013,12,24,02,29,8.10
2013,12,24,02,30,4.80
2013,12,24,02,31,3.20
2013,12,24,02,32,6.40
2013,12,24,02,33,8.10
2013,12,24,02,34,6.40
2013,12,24,02,35,4.80
2013,12,24,02,36,6.40
2013,12,24,02,37,4.80
2013,12,24,02,38,8.10
2013,12,24,02,39,9.60
2013,12,24,02,40,8.10
2013,12,24,02,41,8.10
2013,12,24,02,42,11.30
2013,12,24,02,43,6.40
2013,12,24,02,44,8.10
2013,12,24,02,45,9.60
2013,12,24,02,46,9.60
2013,12,24,02,47,9.60
2013,12,24,02,48,4.80
2013,12,24,02,49,8.10
2013,12,24,02,50,8.10
2013,12,24,02,51,6.40
2013,12,24,02,52,6.40
2013,12,24,02,53,6.40
2013,12,24,02,54,8.10
2013,12,24,02,55,3.20
2013,12,24,02,56,1.60
2013,12,24,02,57,4.80
2013,12,24,02,58,3.20
2013,12,24,03,00,3.20
2013,12,24,03,01,1.60
2013,12,24,03,04,4.80
2013,12,24,03,05,3.20
2013,12,24,03,06,1.60
2013,12,24,03,07,3.20
2013,12,24,03,08,1.60
2013,12,24,03,09,3.20
2013,12,24,03,10,6.40
2013,12,24,03,11,3.20
2013,12,24,03,12,3.20
2013,12,24,03,13,4.80
2013,12,24,03,14,3.20
2013,12,24,03,15,6.40
2013,12,24,03,16,4.80
2013,12,24,03,17,16.10
2013,12,24,03,18,6.40
2013,12,24,03,19,6.40
2013,12,24,03,20,9.60
2013,12,24,03,21,6.40
2013,12,24,03,22,6.40
2013,12,24,03,23,9.60
2013,12,24,03,24,6.40
2013,12,24,03,25,11.30
2013,12,24,03,26,9.60
2013,12,24,03,27,8.10
2013,12,24,03,28,14.50
2013,12,24,03,29,4.80
2013,12,24,03,30,9.60
2013,12,24,03,31,9.60
2013,12,24,03,32,4.80
2013,12,24,03,33,6.40
2013,12,24,03,34,8.10
2013,12,24,03,35,12.90
2013,12,24,03,36,8.10
2013,12,24,03,37,4.80
2013,12,24,03,38,1.60
2013,12,24,03,39,1.60
2013,12,24,03,40,1.60
2013,12,24,03,41,3.20
2013,12,24,03,42,3.20
2013,12,24,03,43,3.20
2013,12,24,03,44,1.60
2013,12,24,03,45,3.20
2013,12,24,03,46,1.60
2013,12,24,03,47,3.20
2013,12,24,03,48,3.20
2013,12,24,03,49,4.80
2013,12,24,03,50,3.20
2013,12,24,03,51,3.20
2013,12,24,03,52,1.60
2013,12,24,03,53,1.60
2013,12,24,03,54,1.60
2013,12,24,03,55,1.60
2013,12,24,03,56,3.20
2013,12,24,03,57,1.60
2013,12,24,03,58,1.60
2013,12,24,03,59,1.60
2013,12,24,04,00,1.60
2013,12,24,04,01,3.20
2013,12,24,04,02,4.80
2013,12,24,04,03,3.20
2013,12,24,04,04,4.80
2013,12,24,04,05,4.80
2013,12,24,04,10,1.60
2013,12,24,04,11,1.60
2013,12,24,04,12,1.60
2013,12,24,04,13,3.20
2013,12,24,04,14,4.80
2013,12,24,04,15,6.40
2013,12,24,04,16,3.20
2013,12,24,04,17,3.20
2013,12,24,04,18,1.60
2013,12,24,04,20,1.60
2013,12,24,04,22,3.20
2013,12,24,04,23,1.60
2013,12,24,04,24,1.60
2013,12,24,04,25,1.60
2013,12,24,04,26,1.60
2013,12,24,04,28,3.20
2013,12,24,04,29,3.20
2013,12,24,04,30,1.60
2013,12,24,04,31,1.60
2013,12,24,04,32,3.20
2013,12,24,04,33,1.60
2013,12,24,04,41,1.60
2013,12,24,04,42,1.60
2013,12,24,04,44,3.20
2013,12,24,04,45,1.60
2013,12,24,04,46,1.60
2013,12,24,04,48,1.60
2013,12,24,04,49,1.60
2013,12,24,04,51,1.60
2013,12,24,04,52,1.60
2013,12,24,04,53,3.20
2013,12,24,04,54,4.80
2013,12,24,04,55,1.60
2013,12,24,04,56,1.60
2013,12,24,04,57,3.20
2013,12,24,04,58,1.60
2013,12,24,04,59,4.80
2013,12,24,05,00,3.20
2013,12,24,05,01,3.20
2013,12,24,05,02,3.20
2013,12,24,05,03,3.20
2013,12,24,05,04,1.60
2013,12,24,05,06,1.60
2013,12,24,05,07,1.60
2013,12,24,05,08,1.60
2013,12,24,05,10,3.20
2013,12,24,05,11,3.20
2013,12,24,05,14,3.20
2013,12,24,05,18,1.60
2013,12,24,05,19,1.60
2013,12,24,05,20,1.60
2013,12,24,05,22,1.60
2013,12,24,05,23,3.20
2013,12,24,05,25,3.20
2013,12,24,05,26,6.40
2013,12,24,05,27,3.20
2013,12,24,05,28,3.20
2013,12,24,05,29,1.60
2013,12,24,05,32,1.60
2013,12,24,05,33,3.20
2013,12,24,05,34,1.60
2013,12,24,05,35,1.60
2013,12,24,05,36,1.60
2013,12,24,05,37,1.60
2013,12,24,05,38,1.60
2013,12,24,05,41,1.60
2013,12,24,05,42,1.60
2013,12,24,05,44,1.60
2013,12,24,05,45,1.60
2013,12,24,05,47,1.60
2013,12,24,05,50,1.60
2013,12,24,05,51,4.80
2013,12,24,05,52,4.80
2013,12,24,05,53,3.20
2013,12,24,05,54,1.60
2013,12,24,05,55,3.20
2013,12,24,05,56,3.20
2013,12,24,05,57,4.80
2013,12,24,05,58,6.40
2013,12,24,05,59,3.20
2013,12,24,06,00,4.80
2013,12,24,06,01,6.40
2013,12,24,06,02,6.40
2013,12,24,06,03,3.20
2013,12,24,06,04,1.60
2013,12,24,06,05,1.60
2013,12,24,06,06,3.20
2013,12,24,06,07,3.20
2013,12,24,06,08,1.60
2013,12,24,06,09,6.40
2013,12,24,06,10,9.60
2013,12,24,06,11,8.10
2013,12,24,06,12,4.80
2013,12,24,06,13,6.40
2013,12,24,06,14,11.30
2013,12,24,06,15,8.10
2013,12,24,06,16,4.80
2013,12,24,06,17,1.60
2013,12,24,06,18,1.60
2013,12,24,06,19,1.60
2013,12,24,06,20,3.20
2013,12,24,06,21,3.20
2013,12,24,06,22,6.40
2013,12,24,06,23,6.40
2013,12,24,06,24,4.80
2013,12,24,06,25,4.80
2013,12,24,06,26,6.40
2013,12,24,06,27,1.60
2013,12,24,06,28,1.60
2013,12,24,06,30,3.20
2013,12,24,06,31,6.40
2013,12,24,06,32,3.20
2013,12,24,06,33,4.80
2013,12,24,06,34,3.20
2013,12,24,06,35,3.20
2013,12,24,06,36,3.20
2013,12,24,06,37,1.60
2013,12,24,06,38,1.60
2013,12,24,06,40,4.80
2013,12,24,06,41,4.80
2013,12,24,06,42,1.60
2013,12,24,06,45,1.60
2013,12,24,06,46,3.20
2013,12,24,06,47,4.80
2013,12,24,06,48,1.60
2013,12,24,06,49,3.20
2013,12,24,06,50,1.60
2013,12,24,06,52,1.60
2013,12,24,07,01,1.60
2013,12,24,07,04,3.20
2013,12,24,07,05,3.20
2013,12,24,07,06,1.60
2013,12,24,07,07,3.20
2013,12,24,07,08,1.60
2013,12,24,07,09,1.60
2013,12,24,07,10,1.60
2013,12,24,07,11,1.60
2013,12,24,07,12,4.80
2013,12,24,07,13,3.20
2013,12,24,07,14,1.60
2013,12,24,07,17,4.80
2013,12,24,07,18,3.20
2013,12,24,07,19,3.20
2013,12,24,07,20,1.60
2013,12,24,07,21,1.60
2013,12,24,07,22,1.60
2013,12,24,07,23,3.20
2013,12,24,07,24,6.40
2013,12,24,07,25,1.60
2013,12,24,07,26,1.60
2013,12,24,07,27,3.20
2013,12,24,07,28,1.60
2013,12,24,07,37,1.60
2013,12,24,07,42,3.20
2013,12,24,07,44,3.20
2013,12,24,07,45,3.20
2013,12,24,07,48,1.60
2013,12,24,07,49,3.20
2013,12,24,07,50,3.20
2013,12,24,07,51,1.60
2013,12,24,07,52,1.60
2013,12,24,07,53,1.60
2013,12,24,07,54,1.60
2013,12,24,07,55,3.20
2013,12,24,08,08,1.60
2013,12,24,08,13,1.60
2013,12,24,08,14,1.60
2013,12,24,08,15,1.60
2013,12,24,08,16,3.20
2013,12,24,08,17,1.60
2013,12,24,08,18,3.20
2013,12,24,08,19,3.20
2013,12,24,08,20,3.20
2013,12,24,08,21,3.20
2013,12,24,08,22,3.20
2013,12,24,08,23,3.20
2013,12,24,08,24,3.20
2013,12,24,08,25,3.20
2013,12,24,08,26,3.20
2013,12,24,08,27,3.20
2013,12,24,08,28,3.20
2013,12,24,08,29,3.20
2013,12,24,08,30,3.20
2013,12,24,08,31,3.20
2013,12,24,08,33,1.60
2013,12,24,08,34,1.60
2013,12,24,08,36,3.20
2013,12,24,08,37,1.60
2013,12,24,08,38,1.60
2013,12,24,08,40,1.60
2013,12,24,08,41,1.60
2013,12,24,08,42,3.20
2013,12,24,08,43,3.20
2013,12,24,08,44,1.60
2013,12,24,08,45,1.60
2013,12,24,08,46,1.60
2013,12,24,08,47,3.20
2013,12,24,08,48,3.20
2013,12,24,08,49,1.60
2013,12,24,08,50,3.20
2013,12,24,08,51,3.20
2013,12,24,08,52,3.20
2013,12,24,08,53,1.60
2013,12,24,08,54,3.20
2013,12,24,08,55,3.20
2013,12,24,08,56,3.20
2013,12,24,08,57,3.20
2013,12,24,08,58,1.60
2013,12,24,08,59,3.20
2013,12,24,09,00,3.20
2013,12,24,09,01,3.20
2013,12,24,09,02,1.60
2013,12,24,09,03,3.20
2013,12,24,09,04,3.20
2013,12,24,09,06,3.20
2013,12,24,09,07,3.20
2013,12,24,09,08,3.20
2013,12,24,09,09,3.20
2013,12,24,09,10,1.60
2013,12,24,09,11,3.20
2013,12,24,09,12,3.20
2013,12,24,09,13,3.20
2013,12,24,09,14,3.20
2013,12,24,09,16,1.60
2013,12,24,09,17,1.60
2013,12,24,09,18,1.60
2013,12,24,09,19,3.20
2013,12,24,09,20,3.20
2013,12,24,09,21,3.20
2013,12,24,09,22,3.20
2013,12,24,09,23,1.60
2013,12,24,09,24,1.60
2013,12,24,09,25,3.20
2013,12,24,09,26,3.20
2013,12,24,09,27,3.20
2013,12,24,09,28,3.20
2013,12,24,09,29,3.20
2013,12,24,09,30,4.80
2013,12,24,09,31,1.60
2013,12,24,09,32,1.60
2013,12,24,09,33,3.20
2013,12,24,09,34,3.20
2013,12,24,09,35,1.60
2013,12,24,09,36,1.60
2013,12,24,09,37,1.60
2013,12,24,09,38,3.20
2013,12,24,09,39,4.80
2013,12,24,09,40,3.20
2013,12,24,09,41,3.20
2013,12,24,09,42,4.80
2013,12,24,09,43,4.80
2013,12,24,09,44,4.80
2013,12,24,09,45,6.40
2013,12,24,09,46,3.20
2013,12,24,09,47,4.80
2013,12,24,09,48,3.20
2013,12,24,09,49,1.60
2013,12,24,09,51,1.60
2013,12,24,09,52,1.60
2013,12,24,09,53,1.60
2013,12,24,09,54,4.80
2013,12,24,09,55,1.60
2013,12,24,09,58,1.60
2013,12,24,09,59,3.20
2013,12,24,10,00,1.60
2013,12,24,10,01,1.60
2013,12,24,10,03,1.60
2013,12,24,10,04,1.60
2013,12,24,10,09,1.60
2013,12,24,10,10,1.60
2013,12,24,10,11,1.60
2013,12,24,10,12,3.20
2013,12,24,10,13,1.60
2013,12,24,10,16,3.20
2013,12,24,10,17,1.60
2013,12,24,10,19,1.60
2013,12,24,10,20,1.60
2013,12,24,10,26,1.60
2013,12,24,10,46,1.60
2013,12,24,10,47,4.80
2013,12,24,10,48,3.20
2013,12,24,10,50,1.60
2013,12,24,10,51,1.60
2013,12,24,10,53,1.60
2013,12,24,10,54,1.60
2013,12,24,10,55,1.60
2013,12,24,10,56,3.20
2013,12,24,10,57,1.60
2013,12,24,10,58,1.60
2013,12,24,10,59,3.20
2013,12,24,11,00,1.60
2013,12,24,11,01,1.60
2013,12,24,11,03,1.60
2013,12,24,11,04,3.20
2013,12,24,11,05,1.60
2013,12,24,11,06,1.60
2013,12,24,11,07,3.20
2013,12,24,11,08,3.20
2013,12,24,11,09,1.60
2013,12,24,11,10,3.20
2013,12,24,11,11,1.60
2013,12,24,11,12,3.20
2013,12,24,11,13,3.20
2013,12,24,11,14,3.20
2013,12,24,11,15,4.80
2013,12,24,11,16,6.40
2013,12,24,11,17,6.40
2013,12,24,11,18,6.40
2013,12,24,11,19,8.10
2013,12,24,11,20,6.40
2013,12,24,11,21,6.40
2013,12,24,11,22,6.40
2013,12,24,11,23,3.20
2013,12,24,11,24,4.80
2013,12,24,11,25,8.10
2013,12,24,11,26,4.80
2013,12,24,11,27,8.10
2013,12,24,11,28,6.40
2013,12,24,11,29,3.20
2013,12,24,11,30,8.10
2013,12,24,11,31,6.40
2013,12,24,11,32,4.80
2013,12,24,11,33,1.60
2013,12,24,11,34,4.80
2013,12,24,11,35,1.60
2013,12,24,11,37,3.20
2013,12,24,11,38,1.60
2013,12,24,11,39,3.20
2013,12,24,11,40,1.60
2013,12,24,11,41,6.40
2013,12,24,11,42,3.20
2013,12,24,11,43,4.80
2013,12,24,11,44,3.20
2013,12,24,11,45,4.80
2013,12,24,11,46,1.60
2013,12,24,11,47,3.20
2013,12,24,11,48,8.10
2013,12,24,11,49,4.80
2013,12,24,11,50,8.10
2013,12,24,11,51,4.80
2013,12,24,11,52,1.60
2013,12,24,11,53,4.80
2013,12,24,11,54,6.40
2013,12,24,11,55,8.10
2013,12,24,11,56,4.80
2013,12,24,11,57,6.40
2013,12,24,11,58,8.10
2013,12,24,11,59,9.60
2013,12,24,12,00,4.80
2013,12,24,12,01,1.60
2013,12,24,12,02,4.80
2013,12,24,12,03,3.20
2013,12,24,12,04,11.30
2013,12,24,12,05,8.10
2013,12,24,12,06,6.40
2013,12,24,12,07,8.10
2013,12,24,12,08,8.10
2013,12,24,12,09,6.40
2013,12,24,12,10,8.10
2013,12,24,12,11,9.60
2013,12,24,12,12,9.60
2013,12,24,12,13,8.10
2013,12,24,12,14,4.80
2013,12,24,12,15,9.60
2013,12,24,12,16,9.60
2013,12,24,12,17,6.40
2013,12,24,12,18,6.40
2013,12,24,12,19,12.90
2013,12,24,12,20,8.10
2013,12,24,12,21,6.40
2013,12,24,12,22,11.30
2013,12,24,12,23,12.90
2013,12,24,12,24,11.30
2013,12,24,12,25,8.10
2013,12,24,12,26,8.10
2013,12,24,12,27,9.60
2013,12,24,12,28,9.60
2013,12,24,12,29,6.40
2013,12,24,12,30,8.10
2013,12,24,12,31,12.90
2013,12,24,12,32,9.60
2013,12,24,12,33,9.60
2013,12,24,12,34,9.60
2013,12,24,12,35,9.60
2013,12,24,12,36,6.40
2013,12,24,12,37,11.30
2013,12,24,12,38,8.10
2013,12,24,12,39,8.10
2013,12,24,12,40,9.60
2013,12,24,12,41,11.30
2013,12,24,12,42,12.90
2013,12,24,12,43,11.30
2013,12,24,12,44,8.10
2013,12,24,12,45,12.90
2013,12,24,12,46,11.30
2013,12,24,12,47,9.60
2013,12,24,12,48,12.90
2013,12,24,12,49,8.10
2013,12,24,12,50,6.40
2013,12,24,12,51,6.40
2013,12,24,12,52,6.40
2013,12,24,12,53,6.40
2013,12,24,12,54,9.60
2013,12,24,12,55,8.10
2013,12,24,12,56,6.40
2013,12,24,12,57,4.80
2013,12,24,12,58,1.60
2013,12,24,12,59,4.80
2013,12,24,13,00,6.40
2013,12,24,13,01,6.40
2013,12,24,13,02,6.40
2013,12,24,13,03,4.80
2013,12,24,13,04,8.10
2013,12,24,13,05,4.80
2013,12,24,13,06,4.80
2013,12,24,13,07,3.20
2013,12,24,13,08,4.80
2013,12,24,13,09,8.10
2013,12,24,13,10,4.80
2013,12,24,13,11,1.60
2013,12,24,13,12,1.60
2013,12,24,13,13,1.60
2013,12,24,13,14,1.60
2013,12,24,13,15,3.20
2013,12,24,13,16,4.80
2013,12,24,13,17,6.40
2013,12,24,13,18,6.40
2013,12,24,13,19,1.60
2013,12,24,13,20,9.60
2013,12,24,13,21,6.40
2013,12,24,13,22,3.20
2013,12,24,13,23,8.10
2013,12,24,13,24,8.10
2013,12,24,13,25,8.10
2013,12,24,13,26,11.30
2013,12,24,13,27,8.10
2013,12,24,13,28,4.80
2013,12,24,13,29,1.60
2013,12,24,13,30,3.20
2013,12,24,13,31,3.20
2013,12,24,13,32,6.40
2013,12,24,13,33,4.80
2013,12,24,13,34,8.10
2013,12,24,13,35,4.80
2013,12,24,13,36,8.10
2013,12,24,13,37,4.80
2013,12,24,13,38,1.60
2013,12,24,13,40,1.60
2013,12,24,13,41,3.20
2013,12,24,13,42,3.20
2013,12,24,13,43,1.60
2013,12,24,13,44,1.60
2013,12,24,13,45,1.60
2013,12,24,13,46,6.40
2013,12,24,13,47,4.80
2013,12,24,13,48,6.40
2013,12,24,13,49,9.60
2013,12,24,13,50,6.40
2013,12,24,13,51,1.60
2013,12,24,13,52,3.20
2013,12,24,13,53,3.20
2013,12,24,13,54,3.20
2013,12,24,13,55,4.80
2013,12,24,13,56,3.20
2013,12,24,13,57,1.60
2013,12,24,14,01,1.60
2013,12,24,14,02,4.80
2013,12,24,14,03,3.20
2013,12,24,14,04,1.60
2013,12,24,14,05,3.20
2013,12,24,14,06,3.20
2013,12,24,14,08,1.60
2013,12,24,14,13,1.60
2013,12,24,14,15,4.80
2013,12,24,14,16,8.10
2013,12,24,14,17,1.60
2013,12,24,14,18,8.10
2013,12,24,14,19,6.40
2013,12,24,14,20,4.80
2013,12,24,14,21,3.20
2013,12,24,14,22,8.10
2013,12,24,14,23,4.80
2013,12,24,14,24,3.20
2013,12,24,14,25,3.20
2013,12,24,14,26,6.40
2013,12,24,14,27,3.20
2013,12,24,14,28,1.60
2013,12,24,14,31,3.20
2013,12,24,14,32,3.20
2013,12,24,14,33,3.20
2013,12,24,14,34,4.80
2013,12,24,14,35,1.60
2013,12,24,14,36,1.60
2013,12,24,14,37,4.80
2013,12,24,14,38,6.40
2013,12,24,14,39,4.80
2013,12,24,14,40,6.40
2013,12,24,14,41,4.80
2013,12,24,14,42,6.40
2013,12,24,14,43,4.80
2013,12,24,14,44,6.40
2013,12,24,14,45,3.20
2013,12,24,14,46,1.60
2013,12,24,14,47,8.10
2013,12,24,14,48,8.10
2013,12,24,14,49,8.10
2013,12,24,14,50,6.40
2013,12,24,14,51,6.40
2013,12,24,14,52,9.60
2013,12,24,14,53,9.60
2013,12,24,14,54,9.60
2013,12,24,14,55,8.10
2013,12,24,14,56,6.40
2013,12,24,14,57,4.80
2013,12,24,14,58,6.40
2013,12,24,14,59,8.10
2013,12,24,15,00,4.80
2013,12,24,15,04,1.60
2013,12,24,15,05,1.60
2013,12,24,15,06,3.20
2013,12,24,15,07,1.60
2013,12,24,15,15,1.60
2013,12,24,15,16,4.80
2013,12,24,15,17,3.20
2013,12,24,15,53,1.60
2013,12,24,16,02,1.60
2013,12,24,16,03,1.60
2013,12,24,16,04,1.60
2013,12,24,16,05,1.60
2013,12,24,16,06,1.60
2013,12,24,16,07,1.60
2013,12,24,16,08,1.60
2013,12,24,16,09,1.60
2013,12,24,16,10,1.60
2013,12,24,16,11,1.60
2013,12,24,16,12,1.60
2013,12,24,16,14,1.60
2013,12,24,16,15,1.60
2013,12,24,16,16,3.20
2013,12,24,16,17,1.60
2013,12,24,16,18,1.60
2013,12,24,16,19,1.60
2013,12,24,16,20,1.60
2013,12,24,16,21,1.60
2013,12,24,16,22,1.60
2013,12,24,16,23,1.60
2013,12,24,16,24,1.60
2013,12,24,16,25,1.60
2013,12,24,16,26,1.60
2013,12,24,16,27,1.60
2013,12,24,16,28,1.60
2013,12,24,16,29,3.20
2013,12,24,16,30,3.20
2013,12,24,16,31,3.20
2013,12,24,16,32,1.60
2013,12,24,16,33,1.60
2013,12,24,16,34,1.60
2013,12,24,16,35,3.20
2013,12,24,16,36,3.20
2013,12,24,16,37,3.20
2013,12,24,16,38,3.20
2013,12,24,16,39,3.20
2013,12,24,16,40,3.20
2013,12,24,16,41,3.20
2013,12,24,16,42,1.60
2013,12,24,16,43,1.60
2013,12,24,16,44,3.20
2013,12,24,16,45,1.60
2013,12,24,16,46,1.60
2013,12,24,16,47,1.60
2013,12,24,16,48,1.60
2013,12,24,16,49,1.60
2013,12,24,16,50,3.20
2013,12,24,16,51,3.20
2013,12,24,16,52,3.20
2013,12,24,16,53,3.20
2013,12,24,16,54,3.20
2013,12,24,16,55,3.20
2013,12,24,16,56,3.20
2013,12,24,16,57,4.80
2013,12,24,16,58,4.80
2013,12,24,16,59,3.20
2013,12,24,17,00,3.20
2013,12,24,17,01,1.60
2013,12,24,17,02,3.20
2013,12,24,17,03,4.80
2013,12,24,17,04,3.20
2013,12,24,17,05,3.20
2013,12,24,17,06,1.60
2013,12,24,17,07,1.60
2013,12,24,17,08,3.20
2013,12,24,17,09,3.20
2013,12,24,17,10,4.80
2013,12,24,17,11,3.20
2013,12,24,17,12,3.20
2013,12,24,17,13,3.20
2013,12,24,17,14,3.20
2013,12,24,17,15,1.60
2013,12,24,17,16,1.60
2013,12,24,17,17,3.20
2013,12,24,17,18,3.20
2013,12,24,17,19,1.60
2013,12,24,17,20,3.20
2013,12,24,17,21,3.20
2013,12,24,17,22,3.20
2013,12,24,17,23,3.20
2013,12,24,17,24,3.20
2013,12,24,17,25,3.20
2013,12,24,17,26,3.20
2013,12,24,17,27,3.20
2013,12,24,17,28,4.80
2013,12,24,17,29,4.80
2013,12,24,17,30,4.80
2013,12,24,17,31,3.20
2013,12,24,17,32,3.20
2013,12,24,17,33,3.20
2013,12,24,17,34,3.20
2013,12,24,17,35,4.80
2013,12,24,17,36,4.80
2013,12,24,17,37,4.80
2013,12,24,17,38,3.20
2013,12,24,17,39,4.80
2013,12,24,17,40,4.80
2013,12,24,17,41,3.20
2013,12,24,17,42,3.20
2013,12,24,17,43,3.20
2013,12,24,17,44,4.80
2013,12,24,17,45,3.20
2013,12,24,17,46,1.60
2013,12,24,17,47,3.20
2013,12,24,17,48,3.20
2013,12,24,17,49,3.20
2013,12,24,17,50,3.20
2013,12,24,17,51,3.20
2013,12,24,17,52,1.60
2013,12,24,17,53,3.20
2013,12,24,17,54,3.20
2013,12,24,17,55,3.20
2013,12,24,17,56,3.20
2013,12,24,17,57,4.80
2013,12,24,17,58,3.20
2013,12,24,17,59,4.80
2013,12,24,18,00,3.20
2013,12,24,18,02,1.60
2013,12,24,18,05,1.60
2013,12,24,18,07,1.60
2013,12,24,18,08,3.20
2013,12,24,18,09,4.80
2013,12,24,18,10,3.20
2013,12,24,18,11,3.20
2013,12,24,18,12,3.20
2013,12,24,18,13,3.20
2013,12,24,18,14,3.20
2013,12,24,18,15,4.80
2013,12,24,18,16,4.80
2013,12,24,18,17,3.20
2013,12,24,18,18,3.20
2013,12,24,18,19,4.80
2013,12,24,18,20,3.20
2013,12,24,18,21,1.60
2013,12,24,18,22,1.60
2013,12,24,18,23,1.60
2013,12,24,18,24,3.20
2013,12,24,18,25,3.20
2013,12,24,18,26,4.80
2013,12,24,18,27,4.80
2013,12,24,18,28,4.80
2013,12,24,18,29,3.20
2013,12,24,18,30,4.80
2013,12,24,18,31,3.20
2013,12,24,18,32,4.80
2013,12,24,18,33,3.20
2013,12,24,18,34,3.20
2013,12,24,18,35,4.80
2013,12,24,18,36,4.80
2013,12,24,18,37,3.20
2013,12,24,18,38,4.80
2013,12,24,18,39,4.80
2013,12,24,18,40,4.80
2013,12,24,18,41,4.80
2013,12,24,18,42,3.20
2013,12,24,18,43,1.60
2013,12,24,18,44,1.60
2013,12,24,18,45,1.60
2013,12,24,18,46,4.80
2013,12,24,18,47,1.60
2013,12,24,18,48,3.20
2013,12,24,18,49,3.20
2013,12,24,18,50,4.80
2013,12,24,18,51,1.60
2013,12,24,18,52,3.20
2013,12,24,18,53,4.80
2013,12,24,18,54,1.60
2013,12,24,18,55,1.60
2013,12,24,18,56,3.20
2013,12,24,18,57,3.20
2013,12,24,18,59,1.60
2013,12,24,19,00,1.60
2013,12,24,19,01,1.60
2013,12,24,19,02,1.60
2013,12,24,19,03,3.20
2013,12,24,19,04,3.20
2013,12,24,19,05,3.20
2013,12,24,19,06,3.20
2013,12,24,19,07,1.60
2013,12,24,19,08,3.20
2013,12,24,19,09,1.60
2013,12,24,19,10,1.60
2013,12,24,19,11,1.60
2013,12,24,19,12,1.60
2013,12,24,19,13,1.60
2013,12,24,19,21,1.60
2013,12,24,19,22,3.20
2013,12,24,19,23,3.20
2013,12,24,19,24,3.20
2013,12,24,19,25,3.20
2013,12,24,19,26,3.20
2013,12,24,19,27,3.20
2013,12,24,19,28,3.20
2013,12,24,19,29,3.20
2013,12,24,19,30,3.20
2013,12,24,19,31,3.20
2013,12,24,19,32,3.20
2013,12,24,19,33,3.20
2013,12,24,19,34,1.60
2013,12,24,19,35,1.60
2013,12,24,19,36,1.60
2013,12,24,19,37,1.60
2013,12,24,19,38,3.20
2013,12,24,19,39,3.20
2013,12,24,19,40,3.20
2013,12,24,19,41,3.20
2013,12,24,19,42,3.20
2013,12,24,19,43,1.60
2013,12,24,19,44,3.20
2013,12,24,19,45,3.20
2013,12,24,19,46,3.20
2013,12,24,19,47,3.20
2013,12,24,19,48,3.20
2013,12,24,19,49,3.20
2013,12,24,19,50,4.80
2013,12,24,19,51,4.80
2013,12,24,19,52,4.80
2013,12,24,19,53,4.80
2013,12,24,19,54,4.80
2013,12,24,19,55,4.80
2013,12,24,19,56,4.80
2013,12,24,19,57,4.80
2013,12,24,19,58,4.80
2013,12,24,19,59,4.80
2013,12,24,20,00,3.20
2013,12,24,20,01,4.80
2013,12,24,20,02,3.20
2013,12,24,20,03,3.20
2013,12,24,20,04,3.20
2013,12,24,20,05,3.20
2013,12,24,20,06,3.20
2013,12,24,20,07,3.20
2013,12,24,20,08,3.20
2013,12,24,20,09,4.80
2013,12,24,20,10,3.20
2013,12,24,20,11,4.80
2013,12,24,20,12,4.80
2013,12,24,20,13,4.80
2013,12,24,20,14,4.80
2013,12,24,20,15,4.80
2013,12,24,20,16,4.80
2013,12,24,20,17,3.20
2013,12,24,20,18,3.20
2013,12,24,20,19,4.80
2013,12,24,20,20,4.80
2013,12,24,20,21,4.80
2013,12,24,20,22,4.80
2013,12,24,20,23,4.80
2013,12,24,20,24,4.80
2013,12,24,20,25,4.80
2013,12,24,20,26,4.80
2013,12,24,20,27,4.80
2013,12,24,20,28,4.80
2013,12,24,20,29,4.80
2013,12,24,20,30,4.80
2013,12,24,20,31,4.80
2013,12,24,20,32,3.20
2013,12,24,20,33,3.20
2013,12,24,20,34,3.20
2013,12,24,20,35,3.20
2013,12,24,20,36,3.20
2013,12,24,20,37,3.20
2013,12,24,20,38,3.20
2013,12,24,20,39,3.20
2013,12,24,20,40,4.80
2013,12,24,20,41,4.80
2013,12,24,20,42,3.20
2013,12,24,20,43,3.20
2013,12,24,20,44,3.20
2013,12,24,20,45,4.80
2013,12,24,20,46,4.80
2013,12,24,20,47,4.80
2013,12,24,20,48,3.20
2013,12,24,20,49,1.60
2013,12,24,20,50,3.20
2013,12,24,20,51,4.80
2013,12,24,20,52,4.80
2013,12,24,20,53,4.80
2013,12,24,20,54,4.80
2013,12,24,20,55,3.20
2013,12,24,20,56,3.20
2013,12,24,20,57,3.20
2013,12,24,20,58,3.20
2013,12,24,20,59,3.20
2013,12,24,21,00,3.20
2013,12,24,21,01,4.80
2013,12,24,21,02,4.80
2013,12,24,21,03,4.80
2013,12,24,21,04,4.80
2013,12,24,21,05,4.80
2013,12,24,21,06,4.80
2013,12,24,21,07,4.80
2013,12,24,21,08,4.80
2013,12,24,21,09,4.80
2013,12,24,21,10,4.80
2013,12,24,21,11,4.80
2013,12,24,21,12,4.80
2013,12,24,21,13,4.80
2013,12,24,21,14,4.80
2013,12,24,21,15,4.80
2013,12,24,21,16,4.80
2013,12,24,21,17,4.80
2013,12,24,21,18,6.40
2013,12,24,21,19,4.80
2013,12,24,21,20,6.40
2013,12,24,21,21,6.40
2013,12,24,21,22,4.80
2013,12,24,21,23,6.40
2013,12,24,21,24,4.80
2013,12,24,21,25,4.80
2013,12,24,21,26,6.40
2013,12,24,21,27,6.40
2013,12,24,21,28,4.80
2013,12,24,21,29,4.80
2013,12,24,21,30,4.80
2013,12,24,21,31,6.40
2013,12,24,21,32,6.40
2013,12,24,21,33,6.40
2013,12,24,21,34,4.80
2013,12,24,21,35,4.80
2013,12,24,21,36,4.80
2013,12,24,21,37,4.80
2013,12,24,21,38,4.80
2013,12,24,21,39,4.80
2013,12,24,21,40,4.80
2013,12,24,21,41,4.80
2013,12,24,21,42,4.80
2013,12,24,21,43,4.80